Погода Минеральные Воды

Погода Минеральные Воды : погода сейчас, прогноз погоды и архив. Всё, что Вы хотите узнать о погоде Минеральные Воды!

Поиск расширенной информации на нашем сайте:

Другие новости

Новости СМИ2

Главная страница сайта

Новости сайта

03.07.2017

Напоминаем, что на нашем специализированном сайте Метеоцентр.Азия вы можете получить высокодетализированные автоматические прогнозы погоды по пунктам России, СНГ и мира в авиационном формате (включающие направление и скорость ветра, видимость, явления погоды, количество и форму облачности, нижнюю и верхнюю границу облачности).


Погода Минеральные Воды - сегодня

Время (UTC), дата Ветер
(°,м/с) 
Видим.   Явления Облачность Т
(°С)
Тd
(°С)
f(%) Тe
(°С)
Pmin
(гПа)
dP
(гПа)
Po
(мм)
O2
(г/м3)
Тmin Tmax R s Состояние
почвы
21 19.05.18 тихо ()   10 км    10/10 600 м 
[Sc]
+15.7 +13.3 86 +22  1015.1  -0.8  734  277           
00 20.05.18 тихо ()   10 км    8/5 1000 м средняя 
[Sc|Ac cast]
+14.7 +13 90 +21  1015.4  0.1  734  278           
03 20.05.18 230 (ЮЗ) 20000 м    10/10 1000 м 
[Sc]
+16.6 +13.5 82 +25  1014.9  -0.2  734  276  +14.5        сухая 
06 20.05.18 240 (ЮЗ) 20000 м    8/0 средняя, верхняя 
[Ac lent|Ci]
+24.8 +13.1 48 +31  1013.6  -0.3  733  268           
09 20.05.18 030 (СВ) 20000 м    3/3 1000 м средняя 
[Cu hum|Ac lent]
+28.1 +11.8 36 +32  1012.7  -0.5  733  266           
12 20.05.18 100 (В) 20000 м    10/10 1000 м 
[Sc]
+27.6 +9.9 33 +29  1012.1  -0.7  733  266           
15 20.05.18 260 (З) 20000 м    8/5 100 м средняя 
[Sc|Ac cast]
+25.1 +13.8 49 +32  1011.9  -0.4  732  267    +29.9       
18 20.05.18 250 (З) 10 км    8/0 средняя 
[Ac lent]
+19.1 +13.4 70 +27  1013.6  0.9  733  273           
21 20.05.18 280 (З) 10 км    ясно 
+16.4 +13.3 82 +24  1013.8  0.1  733  276           
00 21.05.18 270 (З) 10 км    ясно 
+14.8 +12.9 88 +22  1013.8  -0.1  733  277           
03 21.05.18 270 (З) 20000 м    10/10 1000 м 
[Sc]
+15.4 +13.1 86 +23  1014.8  733  277  +14        сухая 
06 21.05.18 260 (З) 20000 м    9/6 1000 м средняя 
[Sc|Ac trans]
+22.3 +15.1 64 +32  1014.8  0.9  734  270           
09 21.05.18 250 (З) 3{10}  20000 м    10/10 1000 м 
[Sc]
+23.1 +14.7 59 +32  1015.6  0.9  735  270           
12 21.05.18 250 (З) 3{10}  10 км  слаб. ливневой дождь  10/10 1000 м кучево-дожд. 
[Cb cap]
+19.7 +16.2 80 +32  1017.4  1.3  736  273           
15 21.05.18 250 (З) 10 км  слаб. ливневой дождь  10/10 1000 м кучево-дожд. 
[Cb cap]
+17.3 +16 92 +30  1018.2  0.5  736  275    +24.6     
18 21.05.18 тихо ()   10 км  {ливн. осадки}  10/5 1000 м средняя 
[Sc|Ac trans]
+16.4 +15.3 93 +26  1019.1  0.8  737  277           
21 21.05.18 240 (ЮЗ) 10 км    8/4 1000 м средняя, верхняя 
[Sc|Ac trans|Ci fib]
+15.2 +14.3 94 +25  1019  -0.3  736  278           
00 22.05.18 180 (Ю) 10 км    10/10 1000 м 
[Sc]
+15.4 +14.6 95 +25  1019.2  0.2  737  278           
03 22.05.18 тихо ()   20000 м    10/10 1000 м 
[Sc]
+15.4 +14.5 94 +24  1020.6  1.4  738  278  +14.3    0.8    влажная 
06 22.05.18 360 (С) 20000 м    10/10 1000 м 
[Sc]
+17.1 +15.1 88 +28  1021  0.6  738  277           
09 22.05.18 040 (СВ) 20000 м    8/6 1000 м средняя 
[Sc|Ac trans]
+23.9 +16.1 62 +35  1019.2  -0.9  737  270           
12 22.05.18 080 (В) 20000 м    8/8 1000 м 
[Cu med, cong]
+25.9 +14.3 49 +34  1018.1  -0.8  737  268           
15 22.05.18 080 (В) 20000 м    10/10 1000 м 
[Sc]
+23.6 +14.7 57 +32  1018.4  737  270    +26.7       
18 22.05.18 тихо ()   10 км    4/0 средняя 
[Ac trans]
+19.5 +15.5 78 +30  1018.9  737  274           
21 22.05.18 тихо ()   10 км    3/0 средняя 
[Ac trans]
+16.4 +14.9 91 +25  1018.6  -0.7  736  277           
Время (UTC), дата Ветер
(°,м/с) 
Видим.   Явления Облачность Т
(°С)
Тd
(°С)
f(%) Тe
(°С)
Pmin
(гПа)
dP
(гПа)
Po
(мм)
O2
(г/м3)
Тmin Tmax R s Состояние
почвы

Для получения пояснительной информации подведите курсор к названию столбца.

ПОГОДА Минеральные Воды - архив

Всё, что Вы хотите узнать о погоде Минеральные Воды - удобно и подробно!

Выберите нужную дату (начиная с 1 января 2015* года) и нажмите кнопку "Найти".
Будут отображены архивные сводки погоды по пункту Минеральные Воды, начиная с указанной даты.


Отображать данные в формате CSV (для использования в таблицах Excel)


Внимание! Наш архив погоды предназначен исключительно для личного некоммерческого использования в познавательных целях. Если Вам необходимы официальные справки о состоянии погоды (для производственных, юридических, коммерческих и т.п. целей), обращайтесь в органы Росгидромета.

*Примечание: данная дата относится к архиву по метеостанциям СССР (Россия, СНГ, Балтия).
Архив по метеостанциям Зарубежной Европы и Азии (кроме Китая) хранится 10 дней, по другим регионам земного шара (Китай, Африка, Америка, Австралия, Океания) - 1 день.

Минеральные Воды - район местоположения метеостанции


Название, широта, долгота, высота метеостанции:
Минеральные Воды 44.2°ш. 43.1°д. 316 м над ур. моря [Российская Федерация]

Дополнительная информация

В oтличие oт бoльшинства пoгoдных сайтoв мы публикуем пoдрoбную метеoинфoрмацию в детальнoм прoфессиoнальнoм фoрмате.

Характеристики температуры и влажнoсти вoздуха измеряются на высoте 2 м в тени вдали oт зданий и деревьев.
Скoрoсть ветра измеряется на высoте 10 м (на урoвне рoста челoвека скoрoсть ветра ниже в 1.5-2 раза). Если метеoстанция нахoдится в гoрoде или в лесу, тo скoрoсть ветра занижена на 2-4 м/с пo сравнению с oткрытым местoм. Скoрoсть ветра над акватoриями крупных рек и oзёр, а также на вершинах хoлмoв на 2-5 м/с выше, чем в oбычных услoвиях.
Атмoсфернoе давление в разных тoчках местнoсти мoжет значительнo oтличаться oт давления на метеoстанции, в зависимoсти oт услoвий рельефа (при пoдъёме на 10 м давление пoнижается примернo на 1 мм рт.ст.).